Weather History for KIRK - March, 2013

Change the Weather History Date:

Tuesday, March 19, 2013

  Actual Average Record
Temperature  
Mean Temperature 34 °F 42 °F  
Max Temperature 44 °F 53 °F - ()
Min Temperature 24 °F 32 °F - ()
Degree Days  
Heating Degree Days 31 23  
Month to date heating degree days 624 508  
Since 1 July heating degree days 5004 5041  
Cooling Degree Days 0 0  
Month to date cooling degree days 0 0  
Year to date cooling degree days 0 0  
Moisture  
Dew Point 13 °F    
Average Humidity 47    
Maximum Humidity 69    
Minimum Humidity 24    
Precipitation  
Precipitation 0.00 in 0.09 in - ()
Month to date precipitation 2.66 1.60  
Year to date precipitation 8.11 4.40  
Sea Level Pressure  
Sea Level Pressure 30.18 in    
Wind  
Wind Speed 9 mph (West)    
Max Wind Speed 16 mph    
Max Gust Speed 23 mph    
Visibility 10 miles    
Events      
T = Trace of Precipitation, MM = Missing Value Source: NWS Daily Summary

Daily Weather History Graph

Daily Weather History Graph

Search for Another Location

Airport or City:

Trip Planner

Search our weather history database for the weather conditions in past years. The results will help you decide how hot, cold, wet, or windy it might be!

Date:

Astronomy

Mar. 19, 2013 Rise Set
Actual Time 7:14 AM CDT 7:21 PM CDT
Civil Twilight 6:47 AM CDT 7:48 PM CDT
Nautical Twilight 6:16 AM CDT 8:20 PM CDT
Astronomical Twilight 5:44 AM CDT 8:52 PM CDT
Moon 12:05 PM CDT (3/19) 2:08 AM CDT (3/19)
Length of Visible Light 13h 00m
Length of Day
12h 06m
Waxing Crescent, 50% of the Moon is Illuminated
Mar 19
Waxing Crescent
Mar 19
First Quarter
Mar 27
Full
Apr 2
Last Quarter
Apr 10
New

Hourly Weather History & Observations

Time (CDT) Temp. Windchill Dew Point Humidity Pressure Visibility Wind Dir Wind Speed Gust Speed Precip Events Conditions
12:55 AM 26.1 °F 16.8 °F 16.0 °F 66% 30.05 in 10.0 mi West 9.2 mph - N/A   Clear
1:55 AM 27.0 °F 16.1 °F 15.1 °F 61% 30.06 in 10.0 mi West 12.7 mph - N/A   Clear
2:55 AM 27.0 °F 16.7 °F 15.1 °F 61% 30.05 in 10.0 mi WNW 11.5 mph - N/A   Clear
3:55 AM 27.0 °F 16.1 °F 15.1 °F 61% 30.08 in 10.0 mi WNW 12.7 mph - N/A   Clear
4:55 AM 27.0 °F 15.6 °F 16.0 °F 63% 30.09 in 10.0 mi WNW 13.8 mph 19.6 mph N/A   Clear
5:55 AM 25.0 °F 15.5 °F 14.0 °F 63% 30.11 in 10.0 mi NW 9.2 mph - N/A   Clear
6:55 AM 24.1 °F 13.7 °F 12.0 °F 60% 30.13 in 10.0 mi NW 10.4 mph - N/A   Clear
7:55 AM 24.1 °F 13.7 °F 10.9 °F 57% 30.16 in 10.0 mi NW 10.4 mph - N/A   Clear
8:55 AM 25.0 °F 13.6 °F 10.0 °F 53% 30.19 in 10.0 mi WNW 12.7 mph - N/A   Clear
9:55 AM 28.9 °F 19.2 °F 9.0 °F 43% 30.22 in 10.0 mi NW 11.5 mph - N/A   Clear
10:55 AM 33.1 °F 25.5 °F 9.0 °F 37% 30.24 in 10.0 mi NW 9.2 mph - N/A   Clear
11:55 AM 35.1 °F 27.9 °F 9.0 °F 34% 30.24 in 10.0 mi NW 9.2 mph - N/A   Clear
12:55 PM 37.9 °F 34.4 °F 9.0 °F 30% 30.24 in 10.0 mi West 4.6 mph - N/A   Clear
1:55 PM 39.9 °F 35.1 °F 7.0 °F 26% 30.22 in 10.0 mi WNW 6.9 mph - N/A   Clear
2:55 PM 42.1 °F 37.7 °F 8.1 °F 25% 30.22 in 10.0 mi Variable 6.9 mph - N/A   Mostly Cloudy
3:55 PM 43.0 °F 38.2 °F 8.1 °F 24% 30.21 in 10.0 mi WNW 8.1 mph - N/A   Clear
4:55 PM 43.0 °F 37.7 °F 10.0 °F 26% 30.21 in 10.0 mi West 9.2 mph - N/A   Clear
5:55 PM 42.1 °F 36.6 °F 10.9 °F 28% 30.21 in 10.0 mi SW 9.2 mph - N/A   Clear
6:55 PM 39.9 °F 34.5 °F 14.0 °F 35% 30.22 in 10.0 mi WSW 8.1 mph - N/A   Clear
7:55 PM 35.1 °F 30.1 °F 14.0 °F 42% 30.22 in 10.0 mi SW 5.8 mph - N/A   Clear
8:55 PM 34.0 °F 31.0 °F 15.1 °F 46% 30.22 in 10.0 mi SW 3.5 mph - N/A   Clear
9:55 PM 30.9 °F 26.2 °F 15.1 °F 52% 30.21 in 10.0 mi SW 4.6 mph - N/A   Clear
10:55 PM 33.1 °F 26.1 °F 18.0 °F 54% 30.22 in 10.0 mi WSW 8.1 mph - N/A   Clear
11:55 PM 33.1 °F 25.5 °F 25.0 °F 72% 30.24 in 10.0 mi NW 9.2 mph - N/A   Scattered Clouds